Regional Weather Roundup
Issued by NWS Portland, ME

Current Version | Previous Version | Text Only | Print | Product List | Glossary On
Versions: 1 2 3 4 5 6 7 8 9 10 11 12 13 14 15 16 17 18 19 20 21 22 23 24 25 26 27 28 29 30 31 32 33 34 35 36 37 38 39 40 41 42 43 44 45 46 47 48 49 50
000 ASUS41 KGYX 220110 RWRGYX WEATHER ROUNDUP FOR MAINE AND NEW HAMPSHIRE NATIONAL WEATHER SERVICE GRAY ME 900 PM EDT THU JUN 21 2018 MEZ002-005-006-010-012-015-018-020-021-024-026-027-029-220200- MAINE CITY SKY/WX TMP DP RH WIND PRES REMARKS PORTLAND FAIR 61 56 83 CALM 29.87R SANFORD MOCLDY 60 57 89 NE5 29.88R BAR HARBOR FAIR 63 44 50 CALM 29.88R WISCASSET FAIR 57 53 86 CALM 29.89R ROCKLAND FAIR 57 51 80 W5 29.88R FRYEBURG FAIR 64 41 42 NW3 29.90R LEWISTONAUBURN FAIR 64 41 42 CALM 29.89R AUGUSTA FAIR 66 39 37 N6 29.89R WATERVILLE FAIR 62 41 46 N3 29.87R BANGOR FAIR 62 43 49 NW7 29.88R GREENVILLE N/A 54 41 61 NW7 29.90R MILLINOCKET FAIR 62 36 37 N5 29.91R HOULTON FAIR 50 44 80 CALM 29.89R PRESQUE ISLE FAIR 54 38 54 NW6 29.92R FRENCHVILLE FAIR 55 35 47 NW6 29.91R CARIBOU FAIR 53 36 52 NW5 29.90R $$ NHZ002-005-008-009-011-012-014-220200- NEW HAMPSHIRE CITY SKY/WX TMP DP RH WIND PRES REMARKS PORTSMOUTH PTCLDY 63 55 74 CALM 29.85R ROCHESTER FAIR 65 58 78 CALM 29.85R NASHUA FAIR 71 58 63 SE5 29.87R MANCHESTER FAIR 72 56 57 E5 29.85R CONCORD FAIR 68 43 40 NW7 29.86R LACONIA FAIR 64 46 52 CALM 29.89R PLYMOUTH FAIR 61 44 54 CALM 29.89R BERLIN FAIR 56 42 59 N5 29.93R WHITEFIELD FAIR 59 40 49 CALM 29.93R JAFFREY FAIR 64 49 57 CALM 29.89R KEENE FAIR 65 46 50 NE3 29.88R LEBANON FAIR 65 41 41 N8 29.89R MT WASHINGTON PTCLDY 41 14 33 NW7 N/A $$ VTZ005-007-008-220200- VERMONT CITY SKY/WX TMP DP RH WIND PRES REMARKS ST JOHNSBURY N/A 60 41 49 MISG 29.91R MONTPELIER FAIR 57 42 57 CALM 29.97R BURLINGTON FAIR 63 41 44 NE3 29.94R $$ MAZ007-012-024-CTZ003-RIZ002-NYZ038-NYZ072-220200- SOUTHERN NEW ENGLAND AND NY CITY SKY/WX TMP DP RH WIND PRES REMARKS BOSTON FAIR 66 57 72 CALM 29.85R WORCESTER MOCLDY 68 56 65 SE6 29.87R NANTUCKET FOG 60 59 96 E6 29.84R VSB 1 PROVIDENCE FAIR 66 63 90 SE6 29.85R HARTFORD FAIR 72 53 51 N6 29.83R ALBANY FAIR 69 46 43 N12 29.88R NEW YORK CITY MOCLDY 79 59 50 S8 29.79R $$ ANZ081-ANZ082-ANZ150-NHZ014-MEZ023>029-220200- COASTAL MARINE OBSERVATIONS STATION/POSITION TIME TEMP WIND PRES WAVE AIR SEA DIR/SP/G HT/PER (UTC) (F) (DEG/KT/KT) (MB) (FT/S) MOUNT DESERT ROC 0000 57 220/ 7/ 7 1011.1R MATINICUS ROCK 0000 57 190/ 12/ 12 1010.3R ISLE OF SHOALS 0000 62 230/ 4/ 4 1010.0R JEFFREYS LEDGE 0036 62 N/A 1/15 $$ .............KEY.............. WCI - WIND CHILL TC - TEMPERATURE IN CELSIUS VSB - VISIBILITY IN MILES HX - HEAT INDEX FAIR- INDICATES FEW OR NO CLOUDS BELOW 12,000 FT, WITH NO SIGNIFICANT WEATHER AND/OR OBSTRUCTIONS TO VISIBILITY.

USA.gov is the U.S. government's official web portal to all federal, state and local government web resources and services.